TimePDT,TemperatureF,Dew PointF,Humidity,Sea Level PressureIn,VisibilityMPH,Wind Direction,Wind SpeedMPH,Gust SpeedMPH,PrecipitationIn,Events,Conditions,WindDirDegrees,DateUTC
12:53 AM,39.0,18.0,43,30.30,10.0,SSW,9.2,-,N/A,,Partly Cloudy,210,2013-04-18 07:53:00
1:53 AM,37.0,16.0,42,30.30,10.0,South,8.1,-,N/A,,Clear,170,2013-04-18 08:53:00
2:53 AM,37.0,16.0,42,30.28,10.0,South,10.4,-,N/A,,Partly Cloudy,190,2013-04-18 09:53:00
3:53 AM,33.1,18.0,54,30.30,10.0,South,5.8,-,N/A,,Clear,170,2013-04-18 10:53:00
4:53 AM,32.0,18.0,56,30.30,10.0,SSE,6.9,-,N/A,,Scattered Clouds,160,2013-04-18 11:53:00
5:53 AM,30.9,18.0,59,30.31,10.0,SSE,6.9,-,N/A,,Partly Cloudy,160,2013-04-18 12:53:00
6:53 AM,30.9,19.0,61,30.32,10.0,SSE,8.1,-,N/A,,Partly Cloudy,160,2013-04-18 13:53:00
7:53 AM,36.0,21.9,57,30.34,10.0,SSE,5.8,-,N/A,,Partly Cloudy,150,2013-04-18 14:53:00
8:53 AM,39.9,26.1,58,30.33,10.0,SSE,6.9,-,N/A,,Scattered Clouds,160,2013-04-18 15:53:00
9:53 AM,45.0,27.0,49,30.33,10.0,SW,11.5,-,N/A,,Mostly Cloudy,220,2013-04-18 16:53:00
10:53 AM,48.9,28.0,44,30.33,10.0,SSW,9.2,-,N/A,,Mostly Cloudy,200,2013-04-18 17:53:00
11:53 AM,50.0,28.0,43,30.32,10.0,SSW,11.5,18.4,N/A,,Mostly Cloudy,210,2013-04-18 18:53:00
12:53 PM,51.1,28.9,43,30.31,10.0,SSW,12.7,18.4,N/A,,Mostly Cloudy,210,2013-04-18 19:53:00
1:53 PM,52.0,28.0,40,30.30,10.0,SSW,9.2,-,N/A,,Mostly Cloudy,210,2013-04-18 20:53:00
2:53 PM,54.0,28.9,38,30.28,10.0,SW,13.8,18.4,N/A,,Mostly Cloudy,230,2013-04-18 21:53:00
3:53 PM,53.1,30.0,41,30.28,10.0,SSW,9.2,-,N/A,,Mostly Cloudy,200,2013-04-18 22:53:00
4:53 PM,53.1,30.0,41,30.27,10.0,SW,15.0,-,N/A,,Overcast,220,2013-04-18 23:53:00
5:53 PM,53.1,30.9,43,30.26,10.0,SSW,10.4,-,N/A,,Overcast,200,2013-04-19 00:53:00
6:53 PM,51.1,32.0,48,30.25,10.0,SSW,11.5,-,N/A,,Overcast,200,2013-04-19 01:53:00
7:53 PM,50.0,33.1,52,30.23,10.0,South,10.4,-,N/A,,Overcast,190,2013-04-19 02:53:00
8:53 PM,48.9,33.1,54,30.22,10.0,SSE,10.4,-,0.00,Rain,Light Rain,160,2013-04-19 03:53:00
9:53 PM,48.0,33.1,56,30.20,10.0,SSE,10.4,-,0.00,,Overcast,160,2013-04-19 04:53:00
10:53 PM,46.9,33.1,59,30.17,10.0,South,13.8,21.9,N/A,,Overcast,170,2013-04-19 05:53:00
11:53 PM,46.0,35.1,66,30.16,10.0,South,11.5,-,0.00,Rain,Light Rain,180,2013-04-19 06:53:00